Location: Unspecified
(0.0000°N, 0.0000°E)
Time: 15:15:51
(UTC+00:00)

CZ-4 DEB - Pass Details

Date: 21 June 2024
Orbit: 785 x 976 km, 99.1° (Epoch: 18 July)

Event Time Altitude Azimuth Distance (km) Brightness Sun altitude
Exits shadow 21:03:23 23° 260° (W) 1,931 ? -40.7°
Drops below altitude 10° 21:07:46 10° 307° (NW) 2,709 ? -41.7°
Sets 21:10:48 0° 321° (NW) 3,661 ? -42.3°
